EDT,Max TemperatureF,Mean TemperatureF,Min TemperatureF,Max Dew PointF,MeanDew PointF,Min DewpointF,Max Humidity, Mean Humidity, Min Humidity, Max Sea Level PressureIn, Mean Sea Level PressureIn, Min Sea Level PressureIn, Max VisibilityMiles, Mean VisibilityMiles, Min VisibilityMiles, Max Wind SpeedMPH, Mean Wind SpeedMPH, Max Gust SpeedMPH,PrecipitationIn, CloudCover, Events, WindDirDegrees
2013-5-1,64,50,37,43,33,25,76,57,31,30.51,30.44,30.35,10,10,10,12,3,,0.00,0,,106
2013-5-2,73,56,39,43,38,36,87,60,31,30.48,30.43,30.34,10,10,10,14,3,21,0.00,2,Fog,90
2013-5-3,66,56,46,41,36,30,81,55,35,30.48,30.43,30.38,10,10,10,13,8,18,0.00,3,,89
2013-5-4,66,52,39,45,39,36,87,71,43,30.39,30.32,30.26,10,10,9,17,4,21,0.00,0,,91
2013-5-5,64,50,35,43,36,30,87,73,40,30.32,30.29,30.23,10,9,6,14,3,20,0.00,0,,99
2013-5-6,68,52,37,50,42,34,87,75,49,30.29,30.24,30.18,10,8,0,12,2,17,0.00,4,Fog,161
2013-5-7,71,56,42,57,47,39,87,74,50,30.20,30.17,30.13,10,10,10,15,3,21,0.00,1,,140
2013-5-8,66,60,55,61,55,52,94,87,78,30.16,30.10,30.04,10,7,0,20,6,25,0.00,6,Fog-Rain,119
2013-5-9,60,56,51,57,52,48,94,89,82,30.06,29.98,29.91,10,4,0,8,1,,0.00,6,Rain,109
2013-5-10,73,60,48,57,51,46,94,76,50,30.02,29.97,29.94,10,6,0,12,2,16,0.00,2,,191
2013-5-11,62,60,57,59,56,52,94,88,77,29.94,29.83,29.73,10,4,0,12,5,23,0.15,7,Fog-Rain-Thunderstorm,203
2013-5-12,66,57,48,57,45,23,94,68,26,29.90,29.74,29.67,10,6,0,14,4,24,0.01,5,Rain,294
2013-5-13,51,43,35,28,27,25,70,53,35,30.08,29.99,29.91,10,10,10,12,6,20,0.00,1,,292
2013-5-14,55,45,35,39,27,23,70,57,29,30.10,30.07,30.02,10,10,10,10,4,18,0.00,1,,336
2013-5-15,60,48,35,52,40,28,88,77,51,30.08,29.93,29.71,10,9,3,17,3,29,0.00,2,Rain,174
2013-5-16,78,63,48,54,46,37,93,68,24,29.85,29.77,29.73,10,8,0,12,3,28,0.00,1,Fog,330
2013-5-17,66,57,48,45,39,36,71,54,35,30.23,30.03,29.86,10,10,8,15,5,23,0.00,0,,3
2013-5-18,66,54,42,48,41,36,82,69,46,30.34,30.29,30.23,10,10,10,9,2,18,0.00,1,,190
2013-5-19,55,53,51,52,49,46,88,84,77,30.37,30.30,30.21,10,7,1,12,4,,0.01,8,Rain,169
2013-5-20,78,66,55,64,56,52,94,86,61,30.20,30.11,30.00,10,3,0,9,3,,0.03,7,Fog,218
2013-5-21,84,72,59,70,65,57,94,77,58,29.99,29.93,29.89,10,8,0,12,6,18,0.00,2,Fog,199
2013-5-22,75,65,55,66,59,52,94,88,73,29.96,29.94,29.90,9,4,0,12,6,20,0.07,7,Fog-Thunderstorm,152
2013-5-23,69,66,62,64,62,61,94,92,83,29.94,29.90,29.81,10,3,0,14,7,24,0.01,8,Fog-Rain-Thunderstorm,198
2013-5-24,62,55,46,61,56,41,94,88,76,29.88,29.76,29.69,10,5,0,16,7,26,0.14,8,Fog-Rain,270
2013-5-25,44,43,42,39,37,36,87,78,71,29.92,29.86,29.83,10,7,3,18,12,28,0.11,8,Rain,336
2013-5-26,59,50,41,39,36,34,81,67,44,30.17,29.98,29.86,10,10,10,18,8,34,0.00,5,,317
2013-5-27,69,55,41,43,38,32,81,59,31,30.23,30.18,30.14,10,10,10,14,2,23,0.00,0,,285
2013-5-28,68,56,44,54,46,37,94,77,46,30.25,30.20,30.17,10,7,0,9,2,,0.01,3,Fog-Rain,178
2013-5-29,77,66,55,68,59,54,94,86,73,30.17,30.11,30.03,10,5,0,15,3,,0.04,6,Fog,167
2013-5-30,87,74,62,66,63,59,94,76,46,30.17,30.12,30.10,10,9,5,8,3,,0.00,1,,241
2013-5-31,89,76,62,70,63,61,94,75,38,30.17,30.12,30.05,10,9,3,15,2,23,0.00,0,,257